Time,TemperatureF,DewpointF,PressureIn,WindDirection,WindDirectionDegrees,WindSpeedMPH,WindSpeedGustMPH,Humidity,HourlyPrecipIn,Conditions,Clouds,dailyrainin,SoftwareType,DateUTC
2013-02-05 04:32:00,0.7,-99.9,29.79,North,-999,0.0,0.0,-999,0.00,,,-99.99,FreeWX 2.04,2013-02-05 09:32:00,
2013-02-05 04:37:00,0.7,-99.9,29.79,North,-999,0.0,0.0,-999,0.00,,,-99.99,FreeWX 2.04,2013-02-05 09:37:00,
2013-02-05 04:42:00,0.7,-99.9,29.79,North,-999,0.0,0.0,-999,0.00,,,-99.99,FreeWX 2.04,2013-02-05 09:42:00,
2013-02-05 04:47:00,0.7,-99.9,29.79,North,-999,0.0,0.0,-999,0.00,,,-99.99,FreeWX 2.04,2013-02-05 09:47:00,
2013-02-05 04:52:00,0.7,-99.9,29.79,North,-999,0.0,0.0,-999,0.00,,,-99.99,FreeWX 2.04,2013-02-05 09:52:00,
2013-02-05 07:08:00,0.7,-99.9,29.76,North,-999,0.0,0.0,-999,0.00,,,-99.99,FreeWX 2.04,2013-02-05 12:08:00,
2013-02-05 07:11:00,0.9,-99.9,29.76,North,-999,0.0,0.0,-999,0.00,,,-99.99,FreeWX 2.04,2013-02-05 12:11:00,
2013-02-05 07:16:00,1.2,-99.9,29.76,North,-999,0.0,0.0,-999,0.00,,,-99.99,FreeWX 2.04,2013-02-05 12:16:00,
2013-02-05 07:21:00,1.8,-99.9,29.76,North,-999,0.0,0.0,-999,0.00,,,-99.99,FreeWX 2.04,2013-02-05 12:21:00,
2013-02-05 07:26:00,2.1,-99.9,29.76,North,-999,0.0,0.0,-999,0.00,,,-99.99,FreeWX 2.04,2013-02-05 12:26:00,
2013-02-05 07:31:00,2.5,-99.9,29.76,North,-999,0.0,0.0,-999,0.00,,,-99.99,FreeWX 2.04,2013-02-05 12:31:00,
2013-02-05 07:36:00,3.0,-99.9,29.76,North,-999,0.0,0.0,-999,0.00,,,-99.99,FreeWX 2.04,2013-02-05 12:36:00,
2013-02-05 07:41:00,3.4,-99.9,29.76,North,-999,0.0,0.0,-999,0.00,,,-99.99,FreeWX 2.04,2013-02-05 12:41:00,
2013-02-05 07:46:00,3.7,-99.9,29.76,North,-999,0.0,0.0,-999,0.00,,,-99.99,FreeWX 2.04,2013-02-05 12:46:00,
2013-02-05 07:51:00,4.1,-99.9,29.79,North,-999,0.0,0.0,-999,0.00,,,-99.99,FreeWX 2.04,2013-02-05 12:51:00,
2013-02-05 07:56:00,4.5,-99.9,29.79,North,-999,0.0,0.0,-999,0.00,,,-99.99,FreeWX 2.04,2013-02-05 12:56:00,
2013-02-05 08:01:00,5.0,-99.9,29.79,North,-999,0.0,0.0,-999,0.00,,,-99.99,FreeWX 2.04,2013-02-05 13:01:00,
2013-02-05 08:06:00,5.2,-99.9,29.79,North,-999,0.0,0.0,-999,0.00,,,-99.99,FreeWX 2.04,2013-02-05 13:06:00,
2013-02-05 08:11:00,5.4,-99.9,29.79,North,-999,0.0,0.0,-999,0.00,,,-99.99,FreeWX 2.04,2013-02-05 13:11:00,
2013-02-05 08:16:00,5.7,-99.9,29.79,North,-999,0.0,0.0,-999,0.00,,,-99.99,FreeWX 2.04,2013-02-05 13:16:00,
2013-02-05 08:21:00,6.1,-99.9,29.76,North,-999,0.0,0.0,-999,0.00,,,-99.99,FreeWX 2.04,2013-02-05 13:21:00,
2013-02-05 08:26:00,6.6,-99.9,29.76,North,-999,0.0,0.0,-999,0.00,,,-99.99,FreeWX 2.04,2013-02-05 13:26:00,
2013-02-05 08:31:00,6.8,-99.9,29.76,North,-999,0.0,0.0,-999,0.00,,,-99.99,FreeWX 2.04,2013-02-05 13:31:00,
2013-02-05 08:36:00,7.2,-99.9,29.76,North,-999,0.0,0.0,-999,0.00,,,-99.99,FreeWX 2.04,2013-02-05 13:36:00,
2013-02-05 08:41:00,7.5,-99.9,29.76,North,-999,0.0,0.0,-999,0.00,,,-99.99,FreeWX 2.04,2013-02-05 13:41:00,
2013-02-05 08:46:00,7.7,-99.9,29.76,North,-999,0.0,0.0,-999,0.00,,,-99.99,FreeWX 2.04,2013-02-05 13:46:00,
2013-02-05 08:51:00,8.2,-99.9,29.79,North,-999,0.0,0.0,-999,0.00,,,-99.99,FreeWX 2.04,2013-02-05 13:51:00,
2013-02-05 08:56:00,8.8,-99.9,29.79,North,-999,0.0,0.0,-999,0.00,,,-99.99,FreeWX 2.04,2013-02-05 13:56:00,
2013-02-05 09:01:00,9.3,-99.9,29.79,North,-999,0.0,0.0,-999,0.00,,,-99.99,FreeWX 2.04,2013-02-05 14:01:00,
2013-02-05 09:06:00,10.0,-99.9,29.76,North,-999,0.0,0.0,-999,0.00,,,-99.99,FreeWX 2.04,2013-02-05 14:06:00,
2013-02-05 09:11:00,10.4,-99.9,29.76,North,-999,0.0,0.0,-999,0.00,,,-99.99,FreeWX 2.04,2013-02-05 14:11:00,
2013-02-05 09:16:00,10.9,-99.9,29.76,North,-999,0.0,0.0,-999,0.00,,,-99.99,FreeWX 2.04,2013-02-05 14:16:00,
2013-02-05 09:21:00,11.1,-99.9,29.76,North,-999,0.0,0.0,-999,0.00,,,-99.99,FreeWX 2.04,2013-02-05 14:21:00,
2013-02-05 09:26:00,11.5,-99.9,29.76,North,-999,0.0,0.0,-999,0.00,,,-99.99,FreeWX 2.04,2013-02-05 14:26:00,
2013-02-05 09:31:00,11.8,-99.9,29.76,North,-999,0.0,0.0,-999,0.00,,,-99.99,FreeWX 2.04,2013-02-05 14:31:00,
2013-02-05 09:36:00,12.0,-99.9,29.76,North,-999,0.0,3.6,-999,0.00,,,-99.99,FreeWX 2.04,2013-02-05 14:36:00,
2013-02-05 09:41:00,11.8,-99.9,29.76,North,-999,0.0,0.0,-999,0.00,,,-99.99,FreeWX 2.04,2013-02-05 14:41:00,
2013-02-05 09:46:00,12.0,-99.9,29.76,North,-999,0.0,0.0,-999,0.00,,,-99.99,FreeWX 2.04,2013-02-05 14:46:00,
2013-02-05 09:51:00,12.6,-99.9,29.76,North,-999,0.0,0.0,-999,0.00,,,-99.99,FreeWX 2.04,2013-02-05 14:51:00,
2013-02-05 09:56:00,13.1,-99.9,29.76,North,-999,0.0,2.7,-999,0.00,,,-99.99,FreeWX 2.04,2013-02-05 14:56:00,
2013-02-05 10:01:00,13.5,-99.9,29.76,North,-999,0.0,0.0,-999,0.00,,,-99.99,FreeWX 2.04,2013-02-05 15:01:00,
2013-02-05 10:06:00,14.2,1.8,29.74,North,-999,0.0,0.0,57,0.00,,,-99.99,FreeWX 2.04,2013-02-05 15:06:00,
2013-02-05 10:11:00,14.9,2.1,29.74,North,-999,0.0,3.6,56,0.00,,,-99.99,FreeWX 2.04,2013-02-05 15:11:00,
2013-02-05 10:16:00,15.8,2.8,29.74,North,-999,0.0,0.0,56,0.00,,,-99.99,FreeWX 2.04,2013-02-05 15:16:00,
2013-02-05 10:21:00,16.2,2.8,29.74,North,-999,0.0,0.0,55,0.00,,,-99.99,FreeWX 2.04,2013-02-05 15:21:00,
2013-02-05 10:26:00,16.3,1.8,29.74,North,-999,0.0,0.0,52,0.00,,,-99.99,FreeWX 2.04,2013-02-05 15:26:00,
2013-02-05 10:31:00,16.9,1.9,29.74,North,-999,0.0,0.0,51,0.00,,,-99.99,FreeWX 2.04,2013-02-05 15:31:00,
2013-02-05 10:36:00,17.1,1.2,29.74,North,-999,0.0,0.0,49,0.00,,,-99.99,FreeWX 2.04,2013-02-05 15:36:00,
2013-02-05 10:41:00,17.2,1.0,29.74,North,-999,0.0,0.0,48,0.00,,,-99.99,FreeWX 2.04,2013-02-05 15:41:00,
2013-02-05 10:46:00,18.0,2.1,29.74,North,-999,0.0,0.0,49,0.00,,,-99.99,FreeWX 2.04,2013-02-05 15:46:00,
2013-02-05 10:51:00,18.5,1.6,29.74,North,-999,0.0,0.0,47,0.00,,,-99.99,FreeWX 2.04,2013-02-05 15:51:00,
2013-02-05 10:56:00,19.0,2.1,29.74,North,-999,0.0,2.7,47,0.00,,,-99.99,FreeWX 2.04,2013-02-05 15:56:00,
2013-02-05 11:01:00,19.2,1.4,29.74,North,-999,0.0,6.3,45,0.00,,,-99.99,FreeWX 2.04,2013-02-05 16:01:00,
2013-02-05 11:06:00,19.6,1.2,29.74,North,-999,0.0,0.0,44,0.00,,,-99.99,FreeWX 2.04,2013-02-05 16:06:00,
2013-02-05 11:11:00,19.6,0.7,29.74,North,-999,0.0,0.0,43,0.00,,,-99.99,FreeWX 2.04,2013-02-05 16:11:00,
2013-02-05 11:16:00,19.6,0.3,29.74,North,-999,0.0,0.0,42,0.00,,,-99.99,FreeWX 2.04,2013-02-05 16:16:00,
2013-02-05 11:21:00,19.4,-1.5,29.74,North,-999,0.0,3.1,39,0.00,,,-99.99,FreeWX 2.04,2013-02-05 16:21:00,
2013-02-05 11:26:00,19.4,-1.5,29.74,North,-999,0.0,0.0,39,0.00,,,-99.99,FreeWX 2.04,2013-02-05 16:26:00,
2013-02-05 11:31:00,19.8,0.0,29.74,North,-999,0.0,3.6,41,0.00,,,-99.99,FreeWX 2.04,2013-02-05 16:31:00,
2013-02-05 11:36:00,20.1,-0.2,29.74,North,-999,0.0,0.0,40,0.00,,,-99.99,FreeWX 2.04,2013-02-05 16:36:00,
2013-02-05 11:41:00,20.5,-0.6,29.74,North,-999,0.0,0.0,39,0.00,,,-99.99,FreeWX 2.04,2013-02-05 16:41:00,
2013-02-05 11:46:00,20.5,-1.1,29.74,North,-999,0.0,4.5,38,0.00,,,-99.99,FreeWX 2.04,2013-02-05 16:46:00,
2013-02-05 11:51:00,20.8,-0.2,29.74,North,-999,0.0,4.5,39,0.00,,,-99.99,FreeWX 2.04,2013-02-05 16:51:00,
2013-02-05 11:56:00,21.2,-0.4,29.74,North,-999,0.0,4.0,38,0.00,,,-99.99,FreeWX 2.04,2013-02-05 16:56:00,
2013-02-05 12:01:00,21.4,-0.2,29.74,North,-999,0.0,0.0,38,0.00,,,-99.99,FreeWX 2.04,2013-02-05 17:01:00,
2013-02-05 12:06:00,22.1,1.0,29.71,North,-999,0.0,3.1,39,0.00,,,-99.99,FreeWX 2.04,2013-02-05 17:06:00,
2013-02-05 12:11:00,22.8,1.6,29.71,North,-999,0.0,0.0,39,0.00,,,-99.99,FreeWX 2.04,2013-02-05 17:11:00,
2013-02-05 12:16:00,23.0,1.8,29.71,North,-999,0.0,0.0,39,0.00,,,-99.99,FreeWX 2.04,2013-02-05 17:16:00,
2013-02-05 12:21:00,22.6,-0.2,29.71,North,-999,0.0,5.4,36,0.00,,,-99.99,FreeWX 2.04,2013-02-05 17:21:00,
2013-02-05 12:26:00,21.9,-0.9,29.71,North,-999,0.0,0.0,36,0.00,,,-99.99,FreeWX 2.04,2013-02-05 17:26:00,
2013-02-05 12:31:00,21.4,-1.3,29.71,North,-999,0.0,2.7,36,0.00,,,-99.99,FreeWX 2.04,2013-02-05 17:31:00,
2013-02-05 12:36:00,20.8,-1.8,29.71,North,-999,0.0,4.9,36,0.00,,,-99.99,FreeWX 2.04,2013-02-05 17:36:00,
2013-02-05 12:41:00,20.5,-1.7,29.71,North,-999,0.0,6.3,37,0.00,,,-99.99,FreeWX 2.04,2013-02-05 17:41:00,
2013-02-05 12:46:00,20.1,-1.8,29.71,North,-999,0.0,4.5,37,0.00,,,-99.99,FreeWX 2.04,2013-02-05 17:46:00,
2013-02-05 12:51:00,20.1,-1.3,29.71,North,-999,0.0,0.0,38,0.00,,,-99.99,FreeWX 2.04,2013-02-05 17:51:00,
2013-02-05 12:56:00,19.9,-1.5,29.71,North,-999,0.0,0.0,38,0.00,,,-99.99,FreeWX 2.04,2013-02-05 17:56:00,
2013-02-05 13:01:00,20.1,-0.8,29.71,North,-999,0.0,0.0,39,0.00,,,-99.99,FreeWX 2.04,2013-02-05 18:01:00,
2013-02-05 13:06:00,20.5,-0.6,29.68,North,-999,0.0,0.0,39,0.00,,,-99.99,FreeWX 2.04,2013-02-05 18:06:00,
2013-02-05 13:11:00,20.7,0.1,29.68,North,-999,0.0,0.0,40,0.00,,,-99.99,FreeWX 2.04,2013-02-05 18:11:00,
2013-02-05 13:16:00,20.8,0.3,29.68,North,-999,0.0,6.7,40,0.00,,,-99.99,FreeWX 2.04,2013-02-05 18:16:00,
2013-02-05 13:21:00,20.5,0.0,29.68,North,-999,0.0,2.7,40,0.00,,,-99.99,FreeWX 2.04,2013-02-05 18:21:00,
2013-02-05 13:26:00,20.5,0.5,29.68,North,-999,0.0,6.3,41,0.00,,,-99.99,FreeWX 2.04,2013-02-05 18:26:00,
2013-02-05 13:31:00,20.7,1.2,29.68,North,-999,0.0,4.9,42,0.00,,,-99.99,FreeWX 2.04,2013-02-05 18:31:00,
2013-02-05 13:36:00,21.0,2.1,29.68,North,-999,0.0,4.0,43,0.00,,,-99.99,FreeWX 2.04,2013-02-05 18:36:00,
2013-02-05 13:41:00,21.4,2.5,29.68,North,-999,0.0,3.1,43,0.00,,,-99.99,FreeWX 2.04,2013-02-05 18:41:00,
2013-02-05 13:46:00,21.6,2.5,29.68,North,-999,0.0,0.0,43,0.00,,,-99.99,FreeWX 2.04,2013-02-05 18:46:00,
2013-02-05 13:51:00,21.4,2.5,29.65,North,-999,0.0,2.7,43,0.00,,,-99.99,FreeWX 2.04,2013-02-05 18:51:00,
2013-02-05 13:56:00,21.0,2.1,29.65,North,-999,0.0,0.0,43,0.00,,,-99.99,FreeWX 2.04,2013-02-05 18:56:00,
2013-02-05 14:01:00,21.0,2.1,29.65,North,-999,0.0,2.7,43,0.00,,,-99.99,FreeWX 2.04,2013-02-05 19:01:00,
2013-02-05 14:06:00,21.0,2.1,29.65,North,-999,0.0,4.9,43,0.00,,,-99.99,FreeWX 2.04,2013-02-05 19:06:00,
2013-02-05 14:11:00,21.0,2.5,29.65,North,-999,0.0,0.0,44,0.00,,,-99.99,FreeWX 2.04,2013-02-05 19:11:00,
2013-02-05 14:16:00,21.0,2.5,29.65,North,-999,0.0,0.0,44,0.00,,,-99.99,FreeWX 2.04,2013-02-05 19:16:00,
2013-02-05 14:21:00,20.7,2.3,29.65,North,-999,0.0,3.6,44,0.00,,,-99.99,FreeWX 2.04,2013-02-05 19:21:00,
2013-02-05 14:26:00,20.7,2.7,29.65,North,-999,0.0,4.5,45,0.00,,,-99.99,FreeWX 2.04,2013-02-05 19:26:00,
2013-02-05 14:31:00,21.0,3.0,29.65,North,-999,0.0,0.0,45,0.00,,,-99.99,FreeWX 2.04,2013-02-05 19:31:00,
2013-02-05 14:36:00,21.6,4.5,29.65,North,-999,0.0,0.0,47,0.00,,,-99.99,FreeWX 2.04,2013-02-05 19:36:00,
2013-02-05 14:46:00,23.7,7.0,29.65,North,-999,0.0,0.0,48,0.00,,,-99.99,FreeWX 2.04,2013-02-05 19:46:00,
2013-02-05 14:51:00,23.9,6.6,29.62,North,-999,0.0,4.5,47,0.00,,,-99.99,FreeWX 2.04,2013-02-05 19:51:00,
2013-02-05 14:56:00,23.5,5.9,29.62,North,-999,0.0,5.8,46,0.00,,,-99.99,FreeWX 2.04,2013-02-05 19:56:00,
2013-02-05 15:01:00,23.5,5.9,29.62,North,-999,0.0,0.0,46,0.00,,,-99.99,FreeWX 2.04,2013-02-05 20:01:00,
2013-02-05 15:06:00,23.5,5.9,29.62,North,-999,0.0,0.0,46,0.00,,,-99.99,FreeWX 2.04,2013-02-05 20:06:00,
2013-02-05 15:11:00,23.5,5.9,29.62,North,-999,0.0,0.0,46,0.00,,,-99.99,FreeWX 2.04,2013-02-05 20:11:00,
2013-02-05 15:16:00,23.0,4.8,29.62,North,-999,0.0,6.3,45,0.00,,,-99.99,FreeWX 2.04,2013-02-05 20:16:00,
2013-02-05 15:21:00,22.5,4.3,29.62,North,-999,0.0,4.5,45,0.00,,,-99.99,FreeWX 2.04,2013-02-05 20:21:00,
2013-02-05 15:26:00,22.1,4.1,29.62,North,-999,0.0,6.7,45,0.00,,,-99.99,FreeWX 2.04,2013-02-05 20:26:00,
2013-02-05 15:31:00,22.1,4.5,29.62,North,-999,0.0,5.8,46,0.00,,,-99.99,FreeWX 2.04,2013-02-05 20:31:00,
2013-02-05 15:36:00,22.1,4.5,29.62,North,-999,0.0,0.0,46,0.00,,,-99.99,FreeWX 2.04,2013-02-05 20:36:00,
2013-02-05 15:41:00,22.1,5.0,29.62,North,-999,0.0,6.3,47,0.00,,,-99.99,FreeWX 2.04,2013-02-05 20:41:00,
2013-02-05 15:46:00,22.3,5.2,29.62,North,-999,0.0,3.1,47,0.00,,,-99.99,FreeWX 2.04,2013-02-05 20:46:00,
2013-02-05 15:51:00,22.1,5.0,29.62,North,-999,0.0,2.7,47,0.00,,,-99.99,FreeWX 2.04,2013-02-05 20:51:00,
2013-02-05 15:56:00,21.9,5.4,29.62,North,-999,0.0,6.9,48,0.00,,,-99.99,FreeWX 2.04,2013-02-05 20:56:00,
2013-02-05 16:01:00,21.9,5.7,29.62,North,-999,0.0,3.1,49,0.00,,,-99.99,FreeWX 2.04,2013-02-05 21:01:00,
2013-02-05 16:06:00,21.7,5.5,29.62,North,-999,0.0,4.9,49,0.00,,,-99.99,FreeWX 2.04,2013-02-05 21:06:00,
2013-02-05 16:11:00,21.7,6.1,29.62,North,-999,0.0,0.0,50,0.00,,,-99.99,FreeWX 2.04,2013-02-05 21:11:00,
2013-02-05 16:16:00,21.7,6.1,29.62,North,-999,0.0,0.0,50,0.00,,,-99.99,FreeWX 2.04,2013-02-05 21:16:00,
2013-02-05 16:21:00,21.7,6.4,29.65,North,-999,0.0,0.0,51,0.00,,,-99.99,FreeWX 2.04,2013-02-05 21:21:00,
2013-02-05 16:26:00,21.7,6.4,29.65,North,-999,0.0,0.0,51,0.00,,,-99.99,FreeWX 2.04,2013-02-05 21:26:00,
2013-02-05 16:31:00,21.9,6.6,29.65,North,-999,0.0,5.8,51,0.00,,,-99.99,FreeWX 2.04,2013-02-05 21:31:00,
2013-02-05 16:36:00,21.9,7.0,29.65,North,-999,0.0,4.9,52,0.00,,,-99.99,FreeWX 2.04,2013-02-05 21:36:00,
2013-02-05 16:41:00,22.1,7.2,29.65,North,-999,0.0,0.0,52,0.00,,,-99.99,FreeWX 2.04,2013-02-05 21:41:00,
2013-02-05 16:46:00,22.1,7.2,29.65,North,-999,0.0,2.7,52,0.00,,,-99.99,FreeWX 2.04,2013-02-05 21:46:00,
2013-02-05 16:51:00,21.9,7.0,29.65,North,-999,0.0,0.0,52,0.00,,,-99.99,FreeWX 2.04,2013-02-05 21:51:00,
2013-02-05 16:56:00,21.9,7.0,29.65,North,-999,0.0,0.0,52,0.00,,,-99.99,FreeWX 2.04,2013-02-05 21:56:00,
2013-02-05 17:01:00,21.9,7.0,29.65,North,-999,0.0,0.0,52,0.00,,,-99.99,FreeWX 2.04,2013-02-05 22:01:00,
2013-02-05 17:06:00,21.9,7.0,29.65,North,-999,0.0,0.0,52,0.00,,,-99.99,FreeWX 2.04,2013-02-05 22:06:00,
2013-02-05 17:11:00,21.9,7.0,29.65,North,-999,0.0,0.0,52,0.00,,,-99.99,FreeWX 2.04,2013-02-05 22:11:00,
2013-02-05 17:16:00,21.9,7.0,29.65,North,-999,0.0,0.0,52,0.00,,,-99.99,FreeWX 2.04,2013-02-05 22:16:00,
2013-02-05 17:21:00,21.7,6.8,29.65,North,-999,0.0,0.0,52,0.00,,,-99.99,FreeWX 2.04,2013-02-05 22:21:00,
2013-02-05 17:26:00,21.6,6.6,29.65,North,-999,0.0,4.5,52,0.00,,,-99.99,FreeWX 2.04,2013-02-05 22:26:00,
2013-02-05 17:32:00,21.6,6.6,29.65,North,-999,0.0,0.0,52,0.00,,,-99.99,FreeWX 2.04,2013-02-05 22:32:00,
2013-02-05 17:37:00,21.6,7.2,29.65,North,-999,0.0,0.0,53,0.00,,,-99.99,FreeWX 2.04,2013-02-05 22:37:00,
2013-02-05 17:42:00,21.4,7.0,29.65,North,-999,0.0,0.0,53,0.00,,,-99.99,FreeWX 2.04,2013-02-05 22:42:00,
2013-02-05 17:47:00,21.4,7.0,29.65,North,-999,0.0,0.0,53,0.00,,,-99.99,FreeWX 2.04,2013-02-05 22:47:00,
2013-02-05 17:52:00,21.4,7.0,29.68,North,-999,0.0,0.0,53,0.00,,,-99.99,FreeWX 2.04,2013-02-05 22:52:00,
2013-02-05 17:57:00,21.4,7.0,29.68,North,-999,0.0,0.0,53,0.00,,,-99.99,FreeWX 2.04,2013-02-05 22:57:00,
2013-02-05 18:02:00,21.4,7.0,29.68,North,-999,0.0,0.0,53,0.00,,,-99.99,FreeWX 2.04,2013-02-05 23:02:00,
2013-02-05 18:07:00,21.4,7.0,29.68,North,-999,0.0,0.0,53,0.00,,,-99.99,FreeWX 2.04,2013-02-05 23:07:00,
2013-02-05 18:12:00,21.4,7.0,29.68,North,-999,0.0,0.0,53,0.00,,,-99.99,FreeWX 2.04,2013-02-05 23:12:00,
2013-02-05 18:17:00,21.4,7.0,29.68,North,-999,0.0,0.0,53,0.00,,,-99.99,FreeWX 2.04,2013-02-05 23:17:00,
2013-02-05 18:22:00,21.4,7.0,29.68,North,-999,0.0,0.0,53,0.00,,,-99.99,FreeWX 2.04,2013-02-05 23:22:00,
2013-02-05 18:27:00,21.4,7.0,29.68,North,-999,0.0,0.0,53,0.00,,,-99.99,FreeWX 2.04,2013-02-05 23:27:00,
2013-02-05 18:32:00,21.4,7.0,29.68,North,-999,0.0,0.0,53,0.00,,,-99.99,FreeWX 2.04,2013-02-05 23:32:00,
2013-02-05 18:37:00,21.4,7.0,29.68,North,-999,0.0,0.0,53,0.00,,,-99.99,FreeWX 2.04,2013-02-05 23:37:00,
2013-02-05 18:42:00,21.4,7.3,29.68,North,-999,0.0,0.0,54,0.00,,,-99.99,FreeWX 2.04,2013-02-05 23:42:00,
2013-02-05 18:47:00,21.4,7.3,29.68,North,-999,0.0,0.0,54,0.00,,,-99.99,FreeWX 2.04,2013-02-05 23:47:00,
2013-02-05 18:52:00,21.4,7.3,29.68,North,-999,0.0,0.0,54,0.00,,,-99.99,FreeWX 2.04,2013-02-05 23:52:00,
2013-02-05 18:57:00,21.4,7.3,29.68,North,-999,0.0,0.0,54,0.00,,,-99.99,FreeWX 2.04,2013-02-05 23:57:00,
2013-02-05 19:02:00,21.4,7.3,29.68,North,-999,0.0,0.0,54,0.00,,,-99.99,FreeWX 2.04,2013-02-06 00:02:00,
2013-02-05 19:07:00,21.4,7.3,29.68,North,-999,0.0,0.0,54,0.00,,,-99.99,FreeWX 2.04,2013-02-06 00:07:00,
2013-02-05 19:12:00,21.4,7.3,29.68,North,-999,0.0,0.0,54,0.00,,,-99.99,FreeWX 2.04,2013-02-06 00:12:00,
2013-02-05 19:17:00,21.4,7.3,29.68,North,-999,0.0,0.0,54,0.00,,,-99.99,FreeWX 2.04,2013-02-06 00:17:00,
2013-02-05 19:22:00,21.4,7.3,29.71,North,-999,0.0,0.0,54,0.00,,,-99.99,FreeWX 2.04,2013-02-06 00:22:00,
2013-02-05 19:27:00,21.4,7.3,29.71,North,-999,0.0,0.0,54,0.00,,,-99.99,FreeWX 2.04,2013-02-06 00:27:00,
2013-02-05 19:32:00,21.4,7.3,29.71,North,-999,0.0,0.0,54,0.00,,,-99.99,FreeWX 2.04,2013-02-06 00:32:00,
2013-02-05 19:37:00,21.4,7.7,29.71,North,-999,0.0,0.0,55,0.00,,,-99.99,FreeWX 2.04,2013-02-06 00:37:00,
2013-02-05 19:42:00,21.4,7.7,29.71,North,-999,0.0,0.0,55,0.00,,,-99.99,FreeWX 2.04,2013-02-06 00:42:00,
2013-02-05 19:47:00,21.4,7.7,29.71,North,-999,0.0,0.0,55,0.00,,,-99.99,FreeWX 2.04,2013-02-06 00:47:00,
2013-02-05 19:52:00,21.4,7.7,29.71,North,-999,0.0,0.0,55,0.00,,,-99.99,FreeWX 2.04,2013-02-06 00:52:00,
2013-02-05 19:57:00,21.4,7.7,29.71,North,-999,0.0,0.0,55,0.00,,,-99.99,FreeWX 2.04,2013-02-06 00:57:00,
2013-02-05 20:02:00,21.4,8.2,29.71,North,-999,0.0,0.0,56,0.00,,,-99.99,FreeWX 2.04,2013-02-06 01:02:00,
2013-02-05 20:07:00,21.4,8.2,29.71,North,-999,0.0,0.0,56,0.00,,,-99.99,FreeWX 2.04,2013-02-06 01:07:00,
2013-02-05 20:12:00,21.2,8.1,29.71,North,-999,0.0,4.0,56,0.00,,,-99.99,FreeWX 2.04,2013-02-06 01:12:00,
2013-02-05 20:17:00,21.0,7.9,29.71,North,-999,0.0,0.0,56,0.00,,,-99.99,FreeWX 2.04,2013-02-06 01:17:00,
2013-02-05 20:22:00,20.5,7.3,29.74,North,-999,0.0,0.0,56,0.00,,,-99.99,FreeWX 2.04,2013-02-06 01:22:00,
2013-02-05 20:27:00,19.9,6.8,29.74,North,-999,0.0,0.0,56,0.00,,,-99.99,FreeWX 2.04,2013-02-06 01:27:00,
2013-02-05 20:32:00,19.2,5.7,29.74,North,-999,0.0,2.7,55,0.00,,,-99.99,FreeWX 2.04,2013-02-06 01:32:00,